ONEWEB-0308, 49094

Orbit data source: Space-Track

ONEWEB-0308, 49094 is a payload satellite owned by One Web (NAA) (UK) in LEO that was launched on Sat, 21 Aug 2021 UTC via a SOYUZ-2-1B launch vehicle from the Tyuratam Missile And Space Complex (TTMTR). Payload-class satellites include a variety of spacecraft equipped with specific instruments for various scientific and technological missions. These include communications satellites like Starlink; space stations such as the ISS; scientific satellites like the Hubble; Earth observation satellites from companies like Planet Labs, Umbra, and HawkEye 360; GPS; miniature CubeSats for education and research; and military/defense satellites.

Loading next visibility...
Identifier
49094, 2021-075V
Orbit
LEO
Country
Flag of UKUK
Related business
Manufacturer
One Web
Mission
Operational Commercial Communications
Bus & Motor
ARROW, Unknown motor
Mass
148 kg wet, ~140 kg dry
Launch date (UTC)
2021-08-21 (5 years ago)
Launch vehicle
SOYUZ-2-1B
Launch site
Tyuratam Missile And Space Complex (TTMTR)
Object type
Payload
Rocket body
Debris
Shape & HBR
Trap Box + 2 Pan, 6.7 m
Radar Cross Section
3.464 m², Medium (>0.1 m² and < 1m²)

Expand to show TLE details & history
Last TLE update: 7 hours ago

TLE from 7 hours ago
0 ONEWEB-0308
1 49094U 21075V   26130.17801242  .00000081  00000-0  19082-3 0  9990
2 49094  87.8979 358.2144 0001767  82.4839 277.6490 13.12443122229571
Epoch: 2026-05-10T04:16Z
TLE epoch observation values (Epoch: 2026-05-10T04:16:20.273Z)
Latitude
-0.00002°
Longitude
66.1451°
Altitude
1,216.435 km
Speed
7.246 km/s
True Right ascension
23h 52m 51s
True Declination
0° 00' 00"
Sunlit
Object was in daylight at epoch
Visualization orbit readout
Latitude
Unknown
Longitude
Unknown
Altitude
Unknown
Speed
Unknown
Apparent Right ascension
Unknown
Apparent Declination
Unknown
Sunlit
N/A
Visualization observer readout
Local Sidereal Time
19:48:56
Azimuth
Unknown
Elevation
Unknown
Doppler factor
Unknown
Orbital elements
Apogee altitude
1,212.18 km
Perigee altitude
1,209.498 km
Semi-major axis
7,588.976 km
Eccentricity
0.00018
Inclination
87.8979°
RAAN
358.2144°
Arg. of periapsis
82.4839°
True anomaly
277.62893°
Mean anomaly
277.649°
Eccentric anomaly
277.63897°
Mean motion
3.28298 °/min
Orbital period
109.66 mins
BSTAR
0.00019082
Loading maneuver chart data...
Computing Atmospheric mass density...
Loading historical data...
Loading historical data...
Loading historical data...
Loading historical data...
Loading historical data...
Loading historical data...
Loading historical data...

Documentation

Showing up to 5 results
|